This is the latest recevied weather packets stored in our database for station/object DO6GZ. If no packets are shown the sender has not sent any weather packets the latest 10 day(s).
| Time | Temp. | Humidity | Pressure | Rain* | Wind** | Luminosity | Snow |
|---|---|---|---|---|---|---|---|
| 1787945519 | 17.22° C | 10% | - | 0 mm | - | - | - |
| 1787927460 | 20.56° C | 10% | - | 0 mm | - | - | - |
| 1787926205 | 20.56° C | 10% | - | 0 mm | - | - | - |
| 1787925577 | 20° C | 10% | - | 0 mm | - | - | - |
| 1787924322 | 19.44° C | 10% | - | 4.06 mm | - | - | - |
| 1787923695 | 18.89° C | 10% | - | 4.06 mm | - | - | - |
| 1787923067 | 18.89° C | 10% | - | 3.81 mm | - | - | - |
| 1787922440 | 18.89° C | 10% | - | 2.03 mm | - | - | - |
| 1787921812 | 20° C | 10% | - | 0.25 mm | - | - | - |
| 1787920557 | 24.44° C | 10% | - | 0 mm | - | - | - |
| 1787918047 | 26.11° C | 10% | - | 0 mm | - | - | - |
| 1787917420 | 26.11° C | 10% | - | 0 mm | - | - | - |
| 1787916792 | 26.11° C | 10% | - | 0 mm | - | - | - |
| 1787915537 | 26.11° C | 10% | - | 0 mm | - | - | - |
| 1787914909 | 25.56° C | 10% | - | 0 mm | - | - | - |
| 1787914282 | 26.11° C | 10% | - | 0 mm | - | - | - |
| 1787912399 | 26.67° C | 10% | - | 0 mm | - | - | - |
| 1787911772 | 25.56° C | 10% | - | 0 mm | - | - | - |
| 1787909889 | 25.56° C | 10% | - | 0 mm | - | - | - |
| 1787909262 | 26.11° C | 10% | - | 0 mm | - | - | - |
| 1787908634 | 26.11° C | 10% | - | 0 mm | - | - | - |
| 1787908006 | 26.67° C | 10% | - | 0 mm | - | - | - |
| 1787906124 | 23.89° C | 10% | - | 0 mm | - | - | - |
| 1787904869 | 25° C | 10% | - | 0 mm | - | - | - |
| 1787897966 | 21.67° C | 10% | - | 0 mm | - | - | - |
* Rain latest hour (hover to see other rain measurements)
** Current wind speed in m/s (hover to see current wind gust speed)